TimeCST,TemperatureF,Dew PointF,Humidity,Sea Level PressureIn,VisibilityMPH,Wind Direction,Wind SpeedMPH,Gust SpeedMPH,PrecipitationIn,Events,Conditions,WindDirDegrees,DateUTC
12:52 AM,30.9,25.0,79,30.04,10.0,West,6.9,-,N/A,,Overcast,260,2013-11-26 06:52:00
1:52 AM,30.9,25.0,79,30.05,10.0,WSW,3.5,-,N/A,,Overcast,250,2013-11-26 07:52:00
2:52 AM,30.9,25.0,79,30.06,10.0,WSW,6.9,-,N/A,,Overcast,250,2013-11-26 08:52:00
3:52 AM,30.9,25.0,79,30.05,10.0,SW,6.9,-,N/A,,Overcast,230,2013-11-26 09:52:00
4:52 AM,30.9,25.0,79,30.04,10.0,WSW,8.1,-,N/A,,Overcast,240,2013-11-26 10:52:00
5:52 AM,30.9,25.0,79,30.03,10.0,WSW,8.1,-,N/A,,Overcast,240,2013-11-26 11:52:00
6:52 AM,32.0,25.0,75,30.04,10.0,SW,8.1,-,N/A,,Overcast,230,2013-11-26 12:52:00
7:52 AM,32.0,25.0,75,30.04,10.0,WSW,9.2,-,N/A,,Overcast,240,2013-11-26 13:52:00
8:52 AM,33.1,25.0,72,30.03,10.0,WNW,10.4,-,N/A,,Overcast,290,2013-11-26 14:52:00
9:52 AM,33.1,23.0,66,30.06,10.0,NW,12.7,-,N/A,,Overcast,310,2013-11-26 15:52:00
10:52 AM,30.9,18.0,59,30.05,10.0,NNW,11.5,19.6,N/A,,Overcast,330,2013-11-26 16:52:00
11:52 AM,30.0,16.0,56,30.06,10.0,NNW,10.4,-,N/A,,Overcast,330,2013-11-26 17:52:00
12:52 PM,30.0,14.0,51,30.06,9.0,NNW,12.7,-,0.00,,Overcast,340,2013-11-26 18:52:00
1:52 PM,30.0,10.9,45,30.06,10.0,NNW,6.9,-,N/A,,Mostly Cloudy,330,2013-11-26 19:52:00
2:52 PM,30.9,10.9,43,30.05,10.0,NW,11.5,-,N/A,,Mostly Cloudy,320,2013-11-26 20:52:00
3:52 PM,30.0,12.9,49,30.07,10.0,WNW,16.1,20.7,N/A,,Mostly Cloudy,300,2013-11-26 21:52:00
4:52 PM,27.0,19.9,75,30.10,3.0,NW,11.5,20.7,0.00,Snow,Light Snow,320,2013-11-26 22:52:00
5:28 PM,26.1,19.0,75,30.08,4.0,NW,12.7,-,0.00,Snow,Light Snow,320,2013-11-26 23:28:00
5:52 PM,25.0,15.1,66,30.12,9.0,NW,18.4,27.6,0.00,,Overcast,310,2013-11-26 23:52:00
6:00 PM,24.1,14.0,65,30.10,10.0,NW,16.1,26.5,N/A,,Overcast,320,2013-11-27 00:00:00
6:52 PM,21.9,12.0,66,30.15,10.0,NW,16.1,27.6,N/A,,Mostly Cloudy,320,2013-11-27 00:52:00
7:52 PM,19.9,7.0,57,30.15,10.0,NW,18.4,26.5,N/A,,Mostly Cloudy,320,2013-11-27 01:52:00
8:52 PM,19.0,5.0,54,30.17,10.0,NNW,18.4,24.2,N/A,,Mostly Cloudy,330,2013-11-27 02:52:00
9:52 PM,19.0,5.0,54,30.18,10.0,NNW,16.1,-,N/A,,Mostly Cloudy,340,2013-11-27 03:52:00
10:52 PM,18.0,5.0,57,30.19,10.0,NNW,13.8,-,N/A,,Mostly Cloudy,330,2013-11-27 04:52:00
11:52 PM,17.1,3.0,54,30.18,10.0,NNW,17.3,25.3,N/A,,Scattered Clouds,340,2013-11-27 05:52:00